Location: Keewatin
(47.4004°N, 93.0827°W)
Time: 00:39:53
(UTC+00:00)

KKS-1 - Pass Details

Date: 27 February 2020
Orbit: 636 x 650 km, 98.3° (Epoch: 28 March)

Event Time Altitude Azimuth Distance (km) Brightness Sun altitude
Rises 12:19:08 0° 140° (SE) 2,945 ? -7.2°
Reaches altitude 10° 12:21:29 10° 132° (SE) 2,038 ? -6.8°
Maximum altitude 12:25:29 35° 67° (ENE) 1,050 ? -6.1°
Drops below altitude 10° 12:29:31 10° 2° (N) 2,044 ? -5.5°
Sets 12:31:52 0° 354° (N) 2,956 ? -5.1°
